| time (UTC) | temp F | wind direction | speed knots | gust knots | rain 1hr in | rain 24hr in | rain mn in | humidity % | barometer mb |
| 20260504044538 | 62 | 182 | 2.6 | 5.2 | 0.00 | 0.00 | 0.00 | 85 | 1019.3 |
| 20260504043031 | 63 | 182 | 2.6 | 4.3 | 0.00 | 0.00 | 0.00 | 84 | 1019.3 |
| 20260504041532 | 63 | 182 | 2.6 | 3.5 | 0.00 | 0.00 | 0.00 | 85 | 1019.2 |
| 20260504040029 | 63 | 182 | 1.7 | 3.5 | 0.00 | 0.00 | 0.00 | 85 | 1019.3 |
| 20260504034529 | 63 | 182 | 2.6 | 5.2 | 0.00 | 0.00 | 0.00 | 83 | 1019.3 |
| 20260504033028 | 64 | 184 | 3.5 | 5.2 | 0.00 | 0.00 | 0.00 | 82 | 1019.2 |
| 20260504031528 | 64 | 180 | 2.6 | 5.2 | 0.00 | 0.00 | 0.00 | 81 | 1019.2 |
| 20260504030037 | 65 | 192 | 4.3 | 6.1 | 0.00 | 0.00 | 0.00 | 79 | 1019.3 |
| 20260504024527 | 66 | 177 | 2.6 | 4.3 | 0.00 | 0.00 | 0.00 | 77 | 1018.9 |
| 20260504023028 | 66 | 188 | 4.3 | 7.8 | 0.00 | 0.00 | 0.00 | 75 | 1018.8 |
| 20260504021528 | 67 | 175 | 4.3 | 7.8 | 0.00 | 0.00 | 0.00 | 74 | 1018.7 |
| 20260504020028 | 67 | 165 | 5.2 | 11.3 | 0.00 | 0.00 | 0.00 | 72 | 1018.7 |
| 20260504014526 | 68 | 161 | 6.1 | 9.6 | 0.00 | 0.00 | 0.00 | 70 | 1018.7 |
| 20260504013025 | 69 | 181 | 6.1 | 10.4 | 0.00 | 0.00 | 0.00 | 70 | 1018.6 |
| 20260504011524 | 70 | 157 | 7.0 | 13.0 | 0.00 | 0.00 | 0.00 | 68 | 1018.4 |
| 20260504010023 | 71 | 198 | 3.5 | 6.1 | 0.00 | 0.00 | 0.00 | 72 | 1018.4 |
| 20260504004524 | 72 | 154 | 4.3 | 9.6 | 0.00 | 0.00 | 0.00 | 65 | 1018.4 |
| 20260504003022 | 74 | 157 | 6.1 | 11.3 | 0.00 | 0.00 | 0.00 | 62 | 1018.2 |
| 20260504001522 | 74 | 167 | 5.2 | 8.7 | 0.00 | 0.00 | 0.00 | 60 | 1018.4 |
| 20260504000021 | 75 | 159 | 7.0 | 12.2 | 0.00 | 0.00 | 0.00 | 58 | 1018.3 |
| 20260503234534 | 75 | 159 | 7.0 | 10.4 | 0.00 | 0.00 | 0.00 | 59 | 1018.3 |
| 20260503233019 | 76 | 142 | 6.1 | 9.6 | 0.00 | 0.00 | 0.00 | 51 | 1018.4 |
| 20260503231517 | 77 | 126 | 6.1 | 9.6 | 0.00 | 0.00 | 0.00 | 48 | 1018.7 |
| 20260503230016 | 77 | 134 | 6.1 | 9.6 | 0.00 | 0.00 | 0.00 | 45 | 1018.9 |
| 20260503224515 | 77 | 161 | 4.3 | 10.4 | 0.00 | 0.00 | 0.00 | 45 | 1019.1 |
| 20260503223012 | 77 | 146 | 4.3 | 9.6 | 0.00 | 0.00 | 0.00 | 45 | 1019.1 |
| 20260503221510 | 77 | 141 | 3.5 | 7.8 | 0.00 | 0.00 | 0.00 | 44 | 1019.4 |
| 20260503220024 | 77 | 133 | 4.3 | 8.7 | 0.00 | 0.00 | 0.00 | 44 | 1019.4 |
| 20260503214508 | 77 | 163 | 5.2 | 10.4 | 0.00 | 0.00 | 0.00 | 43 | 1019.6 |
| 20260503213009 | 76 | 154 | 5.2 | 10.4 | 0.00 | 0.00 | 0.00 | 48 | 1019.7 |
| 20260503211503 | 77 | 127 | 5.2 | 10.4 | 0.00 | 0.00 | 0.00 | 45 | 1020.1 |
| 20260503210001 | 77 | 169 | 6.1 | 11.3 | 0.00 | 0.00 | 0.00 | 44 | 1020.3 |
| 20260503204559 | 77 | 148 | 7.0 | 13.9 | 0.00 | 0.00 | 0.00 | 48 | 1020.6 |
| 20260503203103 | 76 | 137 | 5.2 | 11.3 | 0.00 | 0.00 | 0.00 | 41 | 1020.9 |
| 20260503201556 | 76 | 79 | 3.5 | 12.2 | 0.00 | 0.00 | 0.00 | 46 | 1020.8 |
| 20260503200057 | 76 | 150 | 7.0 | 13.0 | 0.00 | 0.00 | 0.00 | 43 | 1021.2 |
| 20260503194552 | 76 | 103 | 8.7 | 11.3 | 0.00 | 0.00 | 0.00 | 43 | 1021.4 |
| 20260503193054 | 76 | 104 | 8.7 | 13.0 | 0.00 | 0.00 | 0.00 | 43 | 1021.8 |
| 20260503191550 | 76 | 135 | 7.8 | 11.3 | 0.00 | 0.00 | 0.00 | 44 | 1021.9 |
| 20260503190048 | 76 | 158 | 7.0 | 12.2 | 0.00 | 0.00 | 0.00 | 46 | 1022.0 |
| 20260503184558 | 75 | 213 | 4.3 | 9.6 | 0.00 | 0.00 | 0.00 | 46 | 1022.3 |
| 20260503183056 | 75 | 162 | 4.3 | 7.8 | 0.00 | 0.00 | 0.00 | 52 | 1022.7 |
| 20260503181545 | 75 | 128 | 1.7 | 10.4 | 0.00 | 0.00 | 0.00 | 49 | 1022.9 |
| 20260503180044 | 75 | 85 | 5.2 | 7.8 | 0.00 | 0.00 | 0.00 | 50 | 1023.1 |
| 20260503174543 | 75 | 158 | 5.2 | 10.4 | 0.00 | 0.00 | 0.00 | 54 | 1023.3 |
| 20260503173042 | 74 | 155 | 3.5 | 10.4 | 0.00 | 0.00 | 0.00 | 54 | 1023.4 |
| 20260503171538 | 74 | 207 | 3.5 | 7.8 | 0.00 | 0.00 | 0.00 | 52 | 1023.6 |
| 20260503081549 | 61 | 346 | 0.0 | 0.0 | 0.00 | 0.00 | 0.00 | 79 | 1021.6 |
| 20260503071530 | 62 | 346 | 0.0 | 0.0 | 0.00 | 0.00 | 0.00 | 77 | 1022.0 |